W7KKE-3 Weather Reports


time (UTC)temp
C
wind
direction
speed
KPH
gust
KPH
rain 1hr
cm
rain 24hr
cm
rain mn
cm
humidity
%
barometer
mb
20260906052325 13 107 3.2 4.8 0.00 0.00 0.00 89 1012.1
20260906051825 13 84 3.2 3.2 0.00 0.00 0.00 89 1012.1
20260906051326 13 88 1.6 4.8 0.00 0.00 0.00 89 1012.2
20260906050825 13 0 0.0 4.8 0.00 0.00 0.00 89 1012.2
20260906050325 13 116 0.0 4.8 0.00 0.00 0.00 89 1012.3
20260906045825 13 0 3.2 3.2 0.00 0.00 0.00 89 1012.2
20260906045325 13 116 0.0 1.6 0.00 0.00 0.00 89 1012.1
20260906044826 13 107 0.0 6.4 0.00 0.00 0.00 89 1012.2
20260906044326 14 78 1.6 6.4 0.00 0.00 0.00 89 1012.1
20260906043827 14 162 1.6 6.4 0.00 0.00 0.00 89 1012.0
20260906043325 14 0 1.6 1.6 0.00 0.00 0.00 89 1012.0
20260906042825 14 0 0.0 3.2 0.00 0.00 0.00 89 1011.9
20260906042325 14 116 0.0 3.2 0.00 0.00 0.00 89 1012.0
20260906041825 14 110 0.0 3.2 0.00 0.00 0.00 89 1012.0
20260906040825 14 92 3.2 6.4 0.00 0.00 0.00 89 1012.0
20260906040326 14 103 4.8 6.4 0.00 0.00 0.00 89 1012.1
20260906035825 14 0 3.2 3.2 0.00 0.03 0.00 88 1012.0
20260906035325 15 0 0.0 0.0 0.00 0.03 0.00 88 1011.9
20260906034825 15 81 0.0 3.2 0.00 0.03 0.00 88 1011.9
20260906034326 15 88 0.0 3.2 0.00 0.03 0.00 88 1012.0
20260906033825 15 98 1.6 3.2 0.00 0.03 0.00 88 1012.0
20260906033325 15 15 1.6 4.8 0.00 0.03 0.00 88 1012.1
20260906032825 15 327 1.6 4.8 0.00 0.03 0.00 88 1012.1
20260906032325 15 117 0.0 4.8 0.00 0.03 0.00 88 1012.1
20260906031825 15 0 0.0 0.0 0.00 0.03 0.00 88 1012.2
20260906031326 15 0 0.0 0.0 0.00 0.03 0.00 88 1012.2
20260906030825 15 0 0.0 0.0 0.00 0.03 0.00 87 1012.3
20260906030325 15 0 0.0 0.0 0.00 0.03 0.00 87 1012.2
20260906025825 15 0 0.0 0.0 0.00 0.05 0.00 87 1012.2
20260906025325 16 0 0.0 0.0 0.00 0.05 0.00 87 1012.2
20260906024827 15 0 0.0 0.0 0.00 0.05 0.00 87 1012.3
20260906024326 15 0 0.0 0.0 0.00 0.05 0.00 87 1012.3
20260906023825 15 312 0.0 8.0 0.00 0.05 0.00 87 1012.2
20260906022825 16 330 3.2 8.0 0.00 0.05 0.00 87 1012.2
20260906022325 16 333 0.0 8.0 0.00 0.05 0.00 87 1012.2
20260906021825 16 308 0.0 8.0 0.00 0.05 0.00 87 1012.2
20260906020826 16 337 0.0 6.4 0.00 0.05 0.00 87 1012.2
20260906020325 16 333 1.6 6.4 0.00 0.05 0.00 87 1012.2
20260906015825 16 313 3.2 8.0 0.00 0.05 0.00 86 1012.2
20260906015325 16 294 3.2 8.0 0.00 0.05 0.00 86 1012.2
20260906014825 16 319 4.8 8.0 0.00 0.05 0.00 86 1012.2
20260906014326 16 331 4.8 8.0 0.00 0.05 0.00 86 1012.3
20260906013825 16 294 3.2 8.0 0.00 0.05 0.00 86 1012.3
20260906013325 16 296 4.8 8.0 0.00 0.05 0.00 86 1012.2
20260906012826 16 296 3.2 6.4 0.00 0.05 0.00 86 1012.2
20260906012325 16 344 1.6 6.4 0.00 0.05 0.00 86 1012.3
20260906011825 16 291 1.6 6.4 0.00 0.05 0.00 85 1012.2
20260906011326 16 284 3.2 6.4 0.00 0.05 0.00 86 1012.3
20260906010825 16 310 3.2 9.7 0.00 0.05 0.00 86 1012.3
20260906010329 16 337 1.6 9.7 0.00 0.05 0.00 86 1012.3
20260906005825 16 296 4.8 9.7 0.00 0.05 0.00 86 1012.2
20260906005325 16 327 6.4 8.0 0.00 0.05 0.00 87 1012.3
20260906004825 16 287 4.8 8.0 0.00 0.05 0.00 87 1012.3
20260906004326 16 305 4.8 8.0 0.00 0.05 0.00 87 1012.3
20260906003825 16 299 1.6 6.4 0.00 0.05 0.00 87 1012.2
20260906003325 16 306 3.2 6.4 0.00 0.05 0.00 87 1012.2
20260906002825 16 322 3.2 8.0 0.00 0.05 0.00 87 1012.2
20260906002325 16 331 4.8 8.0 0.00 0.05 0.00 87 1012.2
20260906001825 16 295 4.8 8.0 0.00 0.05 0.00 87 1012.2
20260906001326 16 282 4.8 6.4 0.00 0.05 0.00 87 1012.3
20260906000825 16 330 4.8 4.8 0.00 0.05 0.00 87 1012.2
20260906000326 16 277 1.6 4.8 0.00 0.05 0.00 87 1012.3
20260905235825 16 288 1.6 3.2 0.00 0.05 0.00 87 1012.3
20260905235325 16 263 1.6 9.7 0.00 0.05 0.00 87 1012.3
20260905234825 16 278 1.6 9.7 0.00 0.05 0.00 87 1012.3
20260905234326 17 294 4.8 9.7 0.00 0.05 0.00 87 1012.3
20260905233825 17 289 3.2 9.7 0.00 0.05 0.00 87 1012.3
20260905233325 17 275 4.8 9.7 0.00 0.05 0.00 87 1012.3
20260905232825 17 287 6.4 9.7 0.00 0.05 0.00 87 1012.3
20260905232325 17 281 6.4 9.7 0.00 0.05 0.00 86 1012.3
20260905231827 17 289 6.4 9.7 0.00 0.05 0.00 87 1012.3
20260905231327 17 287 4.8 9.7 0.00 0.05 0.00 87 1012.4
20260905230827 17 287 4.8 8.0 0.00 0.05 0.00 86 1012.4
20260905230325 17 299 4.8 9.7 0.00 0.05 0.00 87 1012.3
20260905225825 17 295 3.2 9.7 0.00 0.48 0.00 86 1012.3
20260905225325 17 315 6.4 9.7 0.00 0.48 0.00 86 1012.4
20260905224825 17 317 4.8 9.7 0.00 0.48 0.00 86 1012.4
20260905224326 17 313 6.4 9.7 0.00 0.48 0.00 86 1012.4
20260905223825 17 303 4.8 8.0 0.00 0.48 0.00 86 1012.5
20260905223325 17 256 3.2 11.3 0.00 0.48 0.00 86 1012.6
20260905222825 17 257 3.2 11.3 0.00 0.48 0.00 87 1012.6
20260905222325 17 308 4.8 11.3 0.00 0.48 0.00 87 1012.7
20260905221825 17 271 6.4 9.7 0.00 0.48 0.00 86 1012.8
20260905221326 17 294 1.6 8.0 0.00 0.48 0.00 87 1012.9
20260905220825 17 287 4.8 8.0 0.00 0.48 0.00 87 1012.9
20260905220325 17 305 1.6 8.0 0.00 0.48 0.00 88 1013.0
20260905215825 17 289 3.2 8.0 0.00 1.04 0.00 88 1013.0
20260905214825 17 284 1.6 6.4 0.00 1.04 0.00 87 1013.0
20260905214326 17 273 3.2 8.0 0.00 1.04 0.00 87 1013.0
20260905213825 17 235 3.2 8.0 0.00 1.04 0.00 87 1013.1
20260905213325 17 280 3.2 8.0 0.00 1.04 0.00 88 1013.1
20260905212825 17 217 1.6 11.3 0.00 1.04 0.00 87 1013.1
20260905212325 17 278 4.8 11.3 0.00 1.04 0.00 88 1013.2
20260905211825 17 288 3.2 11.3 0.00 1.04 0.00 88 1013.2
20260905211326 17 301 1.6 8.0 0.00 1.04 0.00 88 1013.1
20260905210825 17 319 1.6 8.0 0.00 1.04 0.00 87 1013.2
20260905210359 17 281 1.6 8.0 0.00 1.04 0.00 87 1013.2
20260905210325 17 281 1.6 8.0 0.00 1.04 0.00 87 1013.2
20260905205825 17 296 3.2 8.0 0.00 1.04 0.00 87 1013.2
20260905205325 17 305 1.6 8.0 0.00 1.04 0.00 87 1013.2
20260905204825 17 270 3.2 8.0 0.00 1.04 0.00 86 1013.3
20260905203825 18 267 3.2 9.7 0.00 1.04 0.00 88 1013.2
20260905203325 18 294 3.2 9.7 0.00 1.04 0.00 87 1013.2
20260905202825 18 243 3.2 9.7 0.00 1.04 0.00 88 1013.1
20260905202325 17 302 1.6 9.7 0.00 1.04 0.00 88 1013.2
20260905201825 18 256 3.2 8.0 0.00 1.04 0.00 88 1013.1
20260905201326 18 333 0.0 8.0 0.00 1.04 0.00 88 1013.1
20260905200825 17 210 3.2 8.0 0.00 1.04 0.00 90 1013.1
20260905200326 17 303 4.8 6.4 0.00 1.04 0.00 90 1013.1
20260905195825 17 301 0.0 4.8 0.00 1.04 0.00 90 1013.1
20260905195325 16 280 0.0 9.7 0.00 1.04 0.00 89 1013.1
20260905194825 16 273 0.0 9.7 0.00 1.04 0.00 89 1013.1
20260905194326 16 235 0.0 9.7 0.00 1.04 0.00 89 1013.1
20260905193825 16 291 1.6 9.7 0.00 1.04 0.00 90 1013.1
20260905193325 16 194 3.2 9.7 0.00 1.04 0.00 90 1013.1
20260905192825 16 218 4.8 9.7 0.00 1.04 0.00 89 1013.2
20260905192325 16 247 6.4 8.0 0.00 1.04 0.00 90 1013.1
20260905191825 16 268 1.6 8.0 0.00 1.04 0.00 90 1013.1
20260905191326 16 252 4.8 8.0 0.00 1.04 0.00 90 1013.2
20260905190825 16 196 1.6 8.0 0.00 1.04 0.00 89 1013.2
20260905190325 16 261 1.6 12.9 0.00 1.04 0.00 89 1013.1
20260905185825 16 252 4.8 12.9 0.00 1.04 0.00 89 1013.1
20260905185325 17 257 3.2 12.9 0.00 1.04 0.00 88 1013.1
20260905184825 17 247 4.8 9.7 0.00 1.04 0.00 88 1013.1
20260905184326 17 239 3.2 9.7 0.00 1.04 0.00 89 1013.1
20260905183825 17 231 6.4 9.7 0.00 1.04 0.00 90 1013.0
20260905183325 17 254 3.2 8.0 0.00 1.04 0.00 90 1013.0
20260905182825 17 271 4.8 8.0 0.00 1.04 0.00 90 1013.0
20260905182325 17 271 3.2 8.0 0.00 1.04 0.00 92 1012.9
20260905181825 16 250 0.0 8.0 0.00 1.04 0.00 92 1012.9
20260905181326 16 226 1.6 6.4 0.00 1.04 0.00 92 1012.9
20260905180825 16 236 1.6 8.0 0.00 1.04 0.00 91 1012.9
20260905180325 16 198 0.0 8.0 0.00 1.04 0.00 91 1012.9
20260905175825 16 233 1.6 8.0 0.00 1.04 0.00 91 1013.0
20260905175325 16 217 4.8 6.4 0.00 1.04 0.00 91 1013.0
20260905174825 16 261 1.6 6.4 0.00 1.04 0.00 91 1012.9
20260905174326 16 256 3.2 6.4 0.00 1.04 0.00 92 1013.0
20260905173825 16 257 3.2 6.4 0.00 1.04 0.00 92 1013.0
20260905173325 16 238 3.2 6.4 0.00 1.04 0.00 92 1012.9
20260905172325 15 277 1.6 4.8 0.00 1.04 0.00 92 1012.9
20260905171825 15 280 0.0 3.2 0.00 1.04 0.00 92 1012.8
20260905171326 15 278 0.0 3.2 0.00 1.04 0.00 92 1012.8
20260905170825 15 292 0.0 1.6 0.00 1.04 0.00 92 1012.8
20260905165825 15 194 1.6 6.4 0.00 1.04 0.00 91 1012.7
20260905165325 15 226 1.6 6.4 0.00 1.04 0.00 92 1012.7
20260905164825 16 211 4.8 4.8 0.00 1.04 0.00 92 1012.7
20260905164326 16 260 0.0 3.2 0.00 1.04 0.00 92 1012.6
20260905163825 16 238 0.0 3.2 0.00 1.04 0.00 92 1012.6
20260905163325 15 267 1.6 1.6 0.00 1.04 0.00 93 1012.6
20260905162825 15 117 0.0 1.6 0.00 1.04 0.00 92 1012.6
20260905162325 15 172 0.0 1.6 0.00 1.04 0.00 93 1012.6
20260905161825 14 0 0.0 4.8 0.00 1.04 0.00 92 1012.7
20260905161326 14 105 0.0 4.8 0.00 1.04 0.00 92 1012.6
20260905160825 14 109 1.6 4.8 0.00 1.04 0.00 92 1012.6
20260905160325 14 102 1.6 3.2 0.00 1.04 0.00 92 1012.7
20260905155825 14 112 0.0 3.2 0.00 1.04 0.00 92 1012.7
20260905155325 14 92 1.6 3.2 0.00 1.04 0.00 92 1012.6
20260905154825 14 92 3.2 3.2 0.00 1.04 0.00 92 1012.7
20260905154326 14 100 0.0 3.2 0.00 1.04 0.00 92 1012.7
20260905153825 14 96 0.0 6.4 0.00 1.04 0.00 92 1012.8
20260905153325 14 106 1.6 6.4 0.00 1.04 0.00 92 1012.7
20260905152920 14 49 3.2 6.4 0.00 1.04 0.00 92 1012.8
20260905152825 14 49 3.2 6.4 0.00 1.04 0.00 92 1012.8
20260905152325 13 98 1.6 4.8 0.00 1.04 0.00 92 1012.8
20260905151825 13 114 1.6 4.8 0.00 1.04 0.00 92 1012.7
20260905151326 13 110 0.0 3.2 0.00 1.04 0.00 92 1012.7
20260905150825 13 110 0.0 3.2 0.00 1.04 0.00 92 1012.7
20260905150325 13 128 0.0 3.2 0.00 1.04 0.00 92 1012.6
20260905145825 13 106 0.0 3.2 0.00 1.04 0.00 92 1012.6
20260905145325 13 84 1.6 1.6 0.00 1.04 0.00 92 1012.6
20260905144825 13 177 0.0 1.6 0.00 1.04 0.00 92 1012.6
20260905144326 13 201 0.0 1.6 0.00 1.04 0.00 92 1012.6
20260905143825 13 176 0.0 4.8 0.00 1.04 0.00 92 1012.6
20260905143325 13 179 1.6 4.8 0.00 1.04 0.00 92 1012.6
20260905142825 13 191 0.0 4.8 0.00 1.04 0.00 92 1012.5
20260905142325 13 207 1.6 1.6 0.00 1.04 0.00 92 1012.6
20260905141825 13 0 0.0 0.0 0.00 1.04 0.00 92 1012.5
20260905141326 13 0 0.0 0.0 0.00 1.04 0.00 92 1012.5
20260905140825 13 102 0.0 0.0 0.00 1.04 0.00 92 1012.4
20260905140325 13 117 0.0 3.2 0.00 1.04 0.00 92 1012.5
20260905135825 13 105 1.6 3.2 0.00 1.07 0.00 92 1012.4
20260905135325 13 86 1.6 3.2 0.00 1.07 0.00 92 1012.4
20260905134825 13 102 1.6 3.2 0.00 1.07 0.00 92 1012.3
20260905134326 13 103 0.0 4.8 0.00 1.07 0.00 92 1012.2
20260905133825 13 105 1.6 4.8 0.00 1.07 0.00 92 1012.2
20260905133325 13 105 1.6 4.8 0.00 1.07 0.00 92 1012.2
20260905132825 13 130 3.2 3.2 0.00 1.07 0.00 92 1012.2
20260905132325 13 85 0.0 0.0 0.00 1.07 0.00 92 1012.2
20260905131825 13 103 0.0 0.0 0.00 1.07 0.00 92 1012.2
20260905131326 13 117 0.0 4.8 0.00 1.07 0.00 92 1012.2
20260905130825 13 99 0.0 4.8 0.00 1.07 0.00 92 1012.2
20260905130325 13 102 0.0 4.8 0.00 1.07 0.00 92 1012.1
20260905125825 13 84 3.2 3.2 0.00 1.07 0.00 92 1012.1
20260905125325 13 100 0.0 3.2 0.00 1.07 0.00 92 1012.1
20260905124919 13 106 0.0 3.2 0.00 1.07 0.00 92 1012.1
20260905124825 13 106 0.0 3.2 0.00 1.07 0.00 92 1012.1
20260905124326 13 82 0.0 1.6 0.00 1.07 0.00 92 1012.1
20260905123825 13 110 0.0 4.8 0.00 1.07 0.00 92 1012.0
20260905123325 13 95 1.6 4.8 0.00 1.07 0.00 92 1012.0
20260905122825 13 100 1.6 4.8 0.00 1.07 0.00 92 1012.0
20260905122325 13 98 0.0 3.2 0.00 1.07 0.00 92 1012.0
20260905121825 13 84 1.6 4.8 0.00 1.07 0.00 92 1012.0
20260905121326 13 109 1.6 4.8 0.00 1.07 0.00 92 1012.0
20260905120825 13 102 1.6 4.8 0.00 1.07 0.00 92 1011.9
20260905120325 13 0 3.2 3.2 0.00 1.07 0.00 92 1011.9
20260905115825 13 102 0.0 3.2 0.00 1.07 0.00 92 1011.9
20260905115325 13 0 1.6 1.6 0.00 1.07 0.00 92 1011.9
20260905114825 13 105 0.0 3.2 0.00 1.07 0.00 91 1012.0
20260905114326 13 0 0.0 3.2 0.00 1.07 0.00 91 1011.9
20260905113825 13 134 0.0 3.2 0.00 1.07 0.00 91 1011.9
20260905113325 13 113 0.0 1.6 0.00 1.07 0.00 91 1011.8
20260905112825 13 92 0.0 1.6 0.00 1.07 0.00 91 1011.7
20260905112325 13 168 0.0 1.6 0.00 1.07 0.00 92 1011.8
20260905111825 13 0 0.0 3.2 0.00 1.07 0.00 92 1011.8
20260905111326 13 75 0.0 3.2 0.00 1.07 0.00 92 1011.8
20260905110825 13 86 0.0 3.2 0.00 1.07 0.00 92 1011.8
20260905110325 13 78 0.0 1.6 0.00 1.07 0.00 92 1011.8
20260905105825 13 0 0.0 0.0 0.00 1.07 0.00 92 1011.9
20260905105325 13 0 0.0 0.0 0.00 1.07 0.00 92 1011.9
20260905104825 13 0 0.0 0.0 0.00 1.07 0.00 92 1011.9
20260905104326 13 0 0.0 0.0 0.00 1.07 0.00 92 1011.9
20260905103825 13 0 0.0 0.0 0.00 1.07 0.00 92 1011.9
20260905103325 13 0 0.0 0.0 0.00 1.07 0.00 91 1011.9
20260905102825 13 0 0.0 3.2 0.00 1.07 0.00 91 1011.9
20260905102325 13 98 0.0 3.2 0.00 1.07 0.00 91 1011.9
20260905101825 13 98 0.0 3.2 0.00 1.07 0.00 91 1011.9
20260905101326 13 138 0.0 1.6 0.00 1.07 0.00 92 1011.9
20260905100825 13 151 0.0 0.0 0.00 1.07 0.00 92 1011.9
20260905100325 13 198 0.0 4.8 0.00 1.07 0.00 92 1011.9
20260905095825 13 107 0.0 4.8 0.00 1.07 0.00 92 1011.9
20260905095325 13 112 0.0 4.8 0.00 1.07 0.00 92 1011.9
20260905094829 -17 91 0.0 4.8 0.00 1.07 0.00 92 1011.9
20260905094825 13 91 0.0 4.8 0.00 1.07 0.00 92 1011.9
20260905094326 13 91 1.6 3.2 0.00 1.07 0.00 92 1011.9
20260905093825 13 89 1.6 3.2 0.00 1.07 0.00 92 1011.9
20260905093325 13 106 0.0 3.2 0.00 1.07 0.00 92 1011.8
20260905092825 13 75 1.6 1.6 0.00 1.07 0.00 92 1011.8
20260905092325 12 98 0.0 3.2 0.00 1.07 0.00 92 1011.8
20260905091825 12 0 0.0 3.2 0.00 1.07 0.00 92 1011.8
20260905091326 12 100 0.0 3.2 0.00 1.07 0.00 92 1011.8
20260905090825 12 0 0.0 1.6 0.00 1.07 0.00 91 1011.7
20260905085825 12 102 0.0 1.6 0.00 1.07 0.00 91 1011.8
20260905085325 12 0 0.0 0.0 0.00 1.07 0.00 91 1011.7
20260905084825 12 0 0.0 0.0 0.00 1.07 0.00 91 1011.7
20260905084326 12 0 0.0 0.0 0.00 1.07 0.00 91 1011.6
20260905083825 12 96 0.0 1.6 0.00 1.07 0.00 91 1011.6
20260905082825 12 85 0.0 1.6 0.00 1.07 0.00 91 1011.5
20260905082325 12 0 0.0 0.0 0.00 1.07 0.00 91 1011.5
20260905081825 12 0 0.0 0.0 0.00 1.07 0.00 91 1011.5
20260905081326 12 0 0.0 0.0 0.00 1.07 0.00 91 1011.5
20260905080825 12 0 0.0 0.0 0.00 1.07 0.00 91 1011.4
20260905080325 12 0 0.0 0.0 0.00 1.07 0.00 91 1011.4
20260905075825 12 0 0.0 0.0 0.00 1.09 0.00 91 1011.4
20260905075325 12 0 0.0 0.0 0.00 1.09 0.00 91 1011.4
20260905075007 13 0 0.0 0.0 0.00 1.09 0.00 91 1011.4
20260905074825 13 0 0.0 0.0 0.00 1.09 0.00 91 1011.4
20260905074326 13 0 0.0 0.0 0.00 1.09 0.00 91 1011.3
20260905073825 13 0 0.0 0.0 0.00 1.09 0.00 91 1011.4
20260905073325 13 0 0.0 0.0 0.00 1.09 0.00 91 1011.4
20260905072825 13 0 0.0 0.0 0.00 1.09 0.00 91 1011.3
20260905072325 13 0 0.0 0.0 0.00 1.09 0.00 91 1011.3
20260905071825 13 0 0.0 0.0 0.00 1.09 0.00 91 1011.2
20260905071326 13 85 0.0 3.2 0.00 1.09 0.00 91 1011.1
20260905070825 13 124 0.0 3.2 0.00 1.09 0.00 91 1011.1
20260905070325 13 170 0.0 3.2 0.00 1.09 0.00 91 1011.1
20260905065325 14 243 0.0 4.8 0.00 1.09 1.09 91 1011.1
20260905064825 14 184 0.0 4.8 0.00 1.09 1.09 91 1011.1
20260905064326 14 193 0.0 4.8 0.00 1.09 1.09 91 1011.1
20260905063825 14 170 1.6 4.8 0.00 1.09 1.09 91 1011.0
20260905063325 14 196 1.6 4.8 0.00 1.09 1.09 91 1010.9
20260905062831 14 191 1.6 3.2 0.00 1.09 1.09 91 1010.9
20260905062825 14 191 1.6 3.2 0.00 1.09 1.09 91 1010.9
20260905062325 14 172 0.0 3.2 0.00 1.09 1.09 91 1010.9
20260905061825 14 233 0.0 1.6 0.00 1.09 1.09 91 1010.9
20260905061326 14 0 0.0 0.0 0.00 1.09 1.09 91 1010.9
20260905060825 14 194 0.0 3.2 0.00 1.09 1.09 91 1010.8
20260905060325 14 177 0.0 3.2 0.00 1.09 1.09 91 1010.9
20260905055825 14 183 0.0 3.2 0.00 1.09 1.09 91 1010.8
20260905055325 14 0 0.0 0.0 0.00 1.09 1.09 91 1010.9
20260905054825 14 0 0.0 0.0 0.00 1.09 1.09 91 1010.9
20260905054326 14 0 0.0 0.0 0.00 1.09 1.09 91 1011.0
20260905053825 14 0 0.0 0.0 0.00 1.09 1.09 91 1010.9
20260905053325 14 0 0.0 4.8 0.00 1.09 1.09 91 1011.0
20260905052825 14 0 0.0 4.8 0.00 1.09 1.09 91 1011.0